Tracking 33404 objects as of 6-Mar-2026
HD Live streaming from Space Station
objects crossing your sky now

GEESAT 2-06

Track GEESAT 2-06 now!
10-day predictions


NORAD ID: 58910
Int'l Code: 2024-023F
Perigee: 560.1 km
Apogee: 569.1 km
Inclination: 50.0 °
Period: 95.8 minutes
Semi major axis: 6935 km
RCS: Unknown
Launch date: February 2, 2024
Source: People's Republic of China (PRC)
Launch site: Xichang Space Center, China (XSC)
Your satellite tracking list
Your tracking list is empty




NASA's NSSDC Master Catalog

Two Line Element Set (TLE):
1 58910U 24023F   26065.30563260  .00007090  00000-0  53895-3 0  9997
2 58910  49.9875  71.6950 0006464   3.4767 356.6223 15.03051277114163
Source of the keplerian elements: AFSPC